DLH542 EDDF-SKBO

Flight info

Callsign DLH542
Flight time N/A
Altitude 30000
Route SOBRA2L/18 SOBRA Y180 DIK UN857 TOLVU/N0482F310 DCT RAPOR DCT GIMER DCT ESTOC UT300 ELCOB/N0472F300 UT300 SENLO UN502 JSY DCT LIZAD/N0480F320 DCT GAPLI/M083F320 DCT SOMAX DCT 49N020W 45N030W 39N040W/M083F340 31N050W 27N053W 24N055W DCT BNJEE/N0487F360 DCT PPR DCT ITEGO UP533 PBL DCT KIKAS DCT DOPLO DOPLO5E
Aircraft A346/H-SDE2E3FGHIJ3J4J5M1RWXY/LB1D1

Departure

Time 2026-05-06 15:42
Airport Frankfurt Main Airport (EDDF)

Arrival

Time N/A
Airport El Dorado International Airport (SKBO)
Time Latitude Longitude Altitude Speed Heading
2026-05-06 15:12 50.04666 8.56049 370 ft 0 kts 340°
2026-05-06 15:21 50.04666 8.56050 370 ft 0 kts 340°
2026-05-06 15:24 50.04662 8.56052 364 ft 3 kts 340°
2026-05-06 15:25 50.04637 8.56066 368 ft 4 kts 340°
2026-05-06 15:25 50.04618 8.56078 371 ft 4 kts 331°
2026-05-06 15:25 50.04601 8.56099 370 ft 4 kts 301°
2026-05-06 15:25 50.04596 8.56128 369 ft 4 kts 265°
2026-05-06 15:26 50.04599 8.56151 367 ft 0 kts 251°
2026-05-06 15:26 50.04591 8.56119 370 ft 4 kts 249°
2026-05-06 15:26 50.04582 8.56080 364 ft 4 kts 249°
2026-05-06 15:26 50.04580 8.56071 368 ft 0 kts 250°
2026-05-06 15:30 50.04579 8.56068 368 ft 1 kts 250°
2026-05-06 15:30 50.04576 8.56054 368 ft 2 kts 250°
2026-05-06 15:31 50.04567 8.56019 345 ft 4 kts 247°
2026-05-06 15:31 50.04547 8.55979 372 ft 6 kts 217°
2026-05-06 15:31 50.04499 8.55945 370 ft 9 kts 200°
2026-05-06 15:32 50.04343 8.55932 367 ft 13 kts 163°
2026-05-06 15:32 50.04262 8.55957 364 ft 12 kts 190°
2026-05-06 15:32 50.04218 8.55852 365 ft 13 kts 251°
2026-05-06 15:32 50.04186 8.55714 365 ft 14 kts 250°
2026-05-06 15:33 50.04152 8.55572 367 ft 12 kts 250°
2026-05-06 15:33 50.04122 8.55448 365 ft 12 kts 249°
2026-05-06 15:33 50.04090 8.55320 365 ft 13 kts 249°
2026-05-06 15:33 50.04059 8.55192 363 ft 13 kts 249°
2026-05-06 15:34 50.04027 8.55056 362 ft 13 kts 249°
2026-05-06 15:34 50.03993 8.54914 365 ft 14 kts 250°
2026-05-06 15:34 50.03957 8.54759 363 ft 15 kts 250°
2026-05-06 15:34 50.03919 8.54601 360 ft 16 kts 250°
2026-05-06 15:35 50.03880 8.54437 361 ft 16 kts 248°
2026-05-06 15:35 50.03822 8.54286 360 ft 16 kts 236°
2026-05-06 15:35 50.03776 8.54126 357 ft 16 kts 250°
2026-05-06 15:35 50.03737 8.53960 357 ft 16 kts 250°
2026-05-06 15:36 50.03697 8.53791 358 ft 16 kts 249°
2026-05-06 15:36 50.03655 8.53623 351 ft 17 kts 249°
2026-05-06 15:36 50.03616 8.53470 356 ft 14 kts 249°
2026-05-06 15:36 50.03585 8.53342 357 ft 12 kts 250°
2026-05-06 15:37 50.03555 8.53213 352 ft 13 kts 250°
2026-05-06 15:37 50.03534 8.53126 356 ft 5 kts 250°
2026-05-06 15:37 50.03521 8.53070 352 ft 7 kts 250°
2026-05-06 15:37 50.03503 8.52994 354 ft 8 kts 249°
2026-05-06 15:38 50.03483 8.52914 350 ft 7 kts 246°
2026-05-06 15:38 50.03464 8.52850 352 ft 5 kts 246°
2026-05-06 15:38 50.03458 8.52828 353 ft 6 kts 247°
2026-05-06 15:38 50.03445 8.52780 353 ft 0 kts 248°
2026-05-06 15:39 50.03444 8.52775 353 ft 1 kts 248°
2026-05-06 15:39 50.03437 8.52747 347 ft 4 kts 248°
2026-05-06 15:39 50.03425 8.52701 349 ft 6 kts 248°
2026-05-06 15:40 50.03408 8.52633 349 ft 7 kts 248°
2026-05-06 15:40 50.03373 8.52592 353 ft 7 kts 186°
2026-05-06 15:40 50.03362 8.52592 351 ft 0 kts 178°
2026-05-06 15:40 50.03361 8.52592 351 ft 0 kts 178°
2026-05-06 15:41 50.03310 8.52595 347 ft 28 kts 178°
2026-05-06 15:41 50.02896 8.52596 353 ft 94 kts 179°
2026-05-06 15:41 50.02006 8.52610 348 ft 155 kts 180°
2026-05-06 15:42 50.00760 8.52652 386 ft 197 kts 184°
2026-05-06 15:42 49.99364 8.52699 983 ft 201 kts 181°
2026-05-06 15:42 49.97952 8.52796 1753 ft 203 kts 181°
2026-05-06 15:42 49.96527 8.52885 2464 ft 209 kts 181°
2026-05-06 15:43 49.95042 8.52983 2907 ft 219 kts 180°
2026-05-06 15:43 49.93480 8.53083 3325 ft 229 kts 180°
2026-05-06 15:43 49.91900 8.53190 3899 ft 230 kts 180°
2026-05-06 15:43 49.90307 8.53307 4626 ft 228 kts 181°
2026-05-06 15:44 49.88725 8.53411 5257 ft 228 kts 181°
2026-05-06 15:44 49.87138 8.53248 5853 ft 229 kts 194°
2026-05-06 15:44 49.85580 8.52558 6242 ft 239 kts 201°
2026-05-06 15:44 49.83969 8.51639 6523 ft 254 kts 202°
2026-05-06 15:45 49.82264 8.50649 6845 ft 268 kts 202°
2026-05-06 15:45 49.80482 8.49629 7317 ft 276 kts 201°
2026-05-06 15:45 49.78665 8.48599 7967 ft 277 kts 202°
2026-05-06 15:45 49.77021 8.47093 8551 ft 278 kts 227°
2026-05-06 15:46 49.76027 8.44551 9161 ft 279 kts 254°
2026-05-06 15:46 49.75884 8.41555 9729 ft 284 kts 279°
2026-05-06 15:46 49.76361 8.38540 10168 ft 292 kts 283°
2026-05-06 15:46 49.76888 8.35415 10412 ft 306 kts 283°
2026-05-06 15:47 49.77423 8.32147 10670 ft 320 kts 282°
2026-05-06 15:47 49.77968 8.28771 10922 ft 334 kts 282°
2026-05-06 15:47 49.78542 8.25206 11168 ft 347 kts 282°
2026-05-06 15:47 49.79138 8.21497 11414 ft 360 kts 282°
2026-05-06 15:48 49.79752 8.17663 11714 ft 371 kts 282°
2026-05-06 15:48 49.80378 8.13739 12245 ft 375 kts 282°
2026-05-06 15:48 49.81003 8.09807 12903 ft 376 kts 282°
2026-05-06 15:48 49.81629 8.05860 13535 ft 378 kts 283°
2026-05-06 15:49 49.82259 8.01877 13982 ft 383 kts 283°
2026-05-06 15:49 49.82887 7.97909 14480 ft 386 kts 282°
2026-05-06 15:49 49.83528 7.93838 14961 ft 390 kts 283°
2026-05-06 15:49 49.84179 7.89727 15420 ft 394 kts 282°
2026-05-06 15:50 49.84831 7.85584 15947 ft 396 kts 282°
2026-05-06 15:50 49.85480 7.81406 16425 ft 400 kts 281°
2026-05-06 15:50 49.86137 7.77187 16930 ft 403 kts 282°
2026-05-06 15:50 49.86804 7.72941 17409 ft 406 kts 282°
2026-05-06 15:51 49.87474 7.68658 17888 ft 410 kts 282°
2026-05-06 15:51 49.88143 7.64345 18352 ft 412 kts 282°
2026-05-06 15:51 49.88814 7.59997 18766 ft 415 kts 282°
2026-05-06 15:51 49.89491 7.55627 19182 ft 418 kts 282°
2026-05-06 15:52 49.90166 7.51229 19620 ft 420 kts 282°
2026-05-06 15:52 49.90844 7.46804 20052 ft 422 kts 281°
2026-05-06 15:52 49.91520 7.42358 20497 ft 424 kts 281°
2026-05-06 15:52 49.92198 7.37892 20924 ft 426 kts 282°
2026-05-06 15:53 49.92652 7.34911 21201 ft 428 kts 282°
2026-05-06 15:53 49.93340 7.30387 21604 ft 430 kts 282°
2026-05-06 15:53 49.94252 7.24361 22146 ft 433 kts 282°
2026-05-06 15:53 49.94940 7.19800 22595 ft 433 kts 282°
2026-05-06 15:54 49.95629 7.15226 23030 ft 435 kts 282°
2026-05-06 15:54 49.96095 7.12127 23296 ft 437 kts 282°
2026-05-06 15:54 49.96786 7.07506 23630 ft 439 kts 282°
2026-05-06 15:54 49.97478 7.02868 23933 ft 441 kts 282°
2026-05-06 15:55 49.98171 6.98212 24229 ft 444 kts 282°
2026-05-06 15:55 49.98753 6.93481 24513 ft 446 kts 277°
2026-05-06 15:55 49.99071 6.88747 24853 ft 445 kts 271°
2026-05-06 15:55 49.99127 6.83931 25210 ft 445 kts 267°
2026-05-06 15:56 49.99009 6.79106 25472 ft 448 kts 266°
2026-05-06 15:56 49.98859 6.74254 25759 ft 450 kts 265°
2026-05-06 15:56 49.98702 6.69362 26061 ft 452 kts 265°
2026-05-06 15:56 49.98549 6.64462 26338 ft 454 kts 265°
2026-05-06 15:57 49.98236 6.59565 26598 ft 455 kts 259°
2026-05-06 15:57 49.97575 6.54747 26856 ft 456 kts 253°
2026-05-06 15:57 49.96574 6.50066 27140 ft 456 kts 246°
2026-05-06 15:57 49.95340 6.45513 27432 ft 457 kts 245°
2026-05-06 15:58 49.94063 6.40978 27784 ft 457 kts 244°
2026-05-06 15:58 49.92780 6.36451 28238 ft 456 kts 244°
2026-05-06 15:58 49.91498 6.31935 28621 ft 456 kts 245°
2026-05-06 15:58 49.90225 6.27425 28934 ft 457 kts 244°
2026-05-06 15:59 49.88946 6.22973 29214 ft 459 kts 245°
2026-05-06 15:59 49.87624 6.18451 29496 ft 460 kts 242°
2026-05-06 15:59 49.86142 6.14038 29793 ft 460 kts 239°
2026-05-06 15:59 49.84516 6.09757 29825 ft 461 kts 236°
2026-05-06 16:00 49.80887 6.01582 29833 ft 460 kts 232°
2026-05-06 16:00 49.77217 5.93483 29839 ft 460 kts 234°
2026-05-06 16:01 49.74019 5.84866 29853 ft 462 kts 242°
2026-05-06 16:01 49.71492 5.75617 29937 ft 471 kts 248°
2026-05-06 16:02 49.70371 5.70793 30263 ft 470 kts 248°
2026-05-06 16:02 49.69271 5.66040 30638 ft 468 kts 248°
2026-05-06 16:02 49.68187 5.61368 30971 ft 467 kts 248°
2026-05-06 16:02 49.67086 5.56639 31259 ft 467 kts 248°
2026-05-06 16:03 49.65982 5.51913 31536 ft 467 kts 248°
2026-05-06 16:03 49.64874 5.47181 31798 ft 467 kts 248°
2026-05-06 16:03 49.62650 5.37742 31865 ft 468 kts 249°
2026-05-06 16:04 49.60569 5.28207 31854 ft 469 kts 251°
2026-05-06 16:04 49.58643 5.18578 31865 ft 469 kts 253°
2026-05-06 16:05 49.56926 5.08867 31874 ft 469 kts 253°
2026-05-06 16:05 49.55203 4.99165 31865 ft 469 kts 253°
2026-05-06 16:06 49.53466 4.89454 31863 ft 471 kts 253°
2026-05-06 16:06 49.51724 4.79761 31868 ft 472 kts 253°
2026-05-06 16:07 49.49960 4.69996 31871 ft 473 kts 253°
2026-05-06 16:07 49.48288 4.60785 31875 ft 472 kts 253°
2026-05-06 16:08 49.46525 4.51109 31870 ft 473 kts 253°
2026-05-06 16:08 49.44732 4.41356 31877 ft 475 kts 253°
2026-05-06 16:09 49.42922 4.31564 31878 ft 476 kts 253°
2026-05-06 16:09 49.41119 4.21834 31879 ft 476 kts 253°
2026-05-06 16:10 49.39296 4.12048 31877 ft 476 kts 253°
2026-05-06 16:10 49.37464 4.02273 31886 ft 476 kts 253°
2026-05-06 16:11 49.35834 3.92419 31896 ft 476 kts 257°
2026-05-06 16:11 49.34409 3.82475 31884 ft 476 kts 257°
2026-05-06 16:12 49.32983 3.72531 31891 ft 476 kts 257°
2026-05-06 16:12 49.31548 3.62604 31888 ft 476 kts 256°
2026-05-06 16:13 49.30112 3.52740 31891 ft 477 kts 257°
2026-05-06 16:13 49.28653 3.42794 31892 ft 478 kts 256°
2026-05-06 16:14 49.27182 3.32842 31894 ft 478 kts 256°
2026-05-06 16:14 49.25706 3.22892 31893 ft 478 kts 256°
2026-05-06 16:15 49.24233 3.12989 31896 ft 475 kts 256°
2026-05-06 16:15 49.22749 3.03120 31898 ft 475 kts 256°
2026-05-06 16:16 49.22258 2.99870 31901 ft 475 kts 256°
2026-05-06 16:16 49.21544 2.95174 31900 ft 475 kts 256°
2026-05-06 16:17 49.20046 2.85334 31899 ft 476 kts 256°
2026-05-06 16:18 49.18988 2.78391 31906 ft 475 kts 256°
2026-05-06 16:18 49.17476 2.68532 31909 ft 475 kts 256°
2026-05-06 16:19 49.15943 2.58662 31908 ft 477 kts 257°
2026-05-06 16:19 49.14414 2.48775 31911 ft 478 kts 257°
2026-05-06 16:20 49.12956 2.38848 31914 ft 478 kts 260°
2026-05-06 16:20 49.11956 2.28751 31933 ft 478 kts 262°
2026-05-06 16:21 49.11032 2.18753 31932 ft 477 kts 263°
2026-05-06 16:21 49.10087 2.08707 31939 ft 476 kts 262°
2026-05-06 16:22 49.09185 1.98679 31941 ft 475 kts 264°
2026-05-06 16:22 49.08419 1.88633 31941 ft 475 kts 264°
2026-05-06 16:23 49.07651 1.78669 31937 ft 475 kts 263°
2026-05-06 16:23 49.06854 1.68641 31926 ft 476 kts 264°
2026-05-06 16:24 49.06048 1.58602 31943 ft 476 kts 264°
2026-05-06 16:24 49.05232 1.48567 31930 ft 476 kts 264°
2026-05-06 16:25 49.04408 1.38522 31947 ft 476 kts 264°
2026-05-06 16:25 49.03583 1.28496 31940 ft 475 kts 265°
2026-05-06 16:26 49.03198 1.18396 31943 ft 474 kts 271°
2026-05-06 16:26 49.03412 1.08354 31933 ft 473 kts 274°
2026-05-06 16:27 49.03731 0.98371 31946 ft 474 kts 274°
2026-05-06 16:27 49.04044 0.88329 31964 ft 475 kts 274°
2026-05-06 16:28 49.04198 0.83278 32233 ft 475 kts 274°
2026-05-06 16:28 49.04347 0.78258 32669 ft 471 kts 273°
2026-05-06 16:28 49.04493 0.73286 33081 ft 468 kts 274°
2026-05-06 16:28 49.04636 0.68317 33415 ft 467 kts 273°
2026-05-06 16:29 49.04779 0.63368 33671 ft 467 kts 273°
2026-05-06 16:29 49.04918 0.58405 33887 ft 468 kts 273°
2026-05-06 16:29 49.05185 0.48476 33954 ft 466 kts 273°
2026-05-06 16:30 49.05402 0.40247 33949 ft 467 kts 273°
2026-05-06 16:30 49.05693 0.28766 33955 ft 464 kts 273°
2026-05-06 16:31 49.05938 0.18903 33952 ft 465 kts 272°
2026-05-06 16:31 49.06167 0.09019 33962 ft 464 kts 273°
2026-05-06 16:32 49.06393 -0.00872 33975 ft 465 kts 273°
2026-05-06 16:32 49.06609 -0.10715 33983 ft 466 kts 273°
2026-05-06 16:33 49.06819 -0.20629 33983 ft 466 kts 273°
2026-05-06 16:34 49.07107 -0.35490 33989 ft 467 kts 272°
2026-05-06 16:34 49.07284 -0.45426 33996 ft 467 kts 272°
2026-05-06 16:35 49.07452 -0.55338 33990 ft 467 kts 272°
2026-05-06 16:35 49.07613 -0.65259 33995 ft 467 kts 272°
2026-05-06 16:36 49.07766 -0.75186 33993 ft 467 kts 272°
2026-05-06 16:36 49.07909 -0.85046 33984 ft 467 kts 272°
2026-05-06 16:37 49.08046 -0.94976 33982 ft 467 kts 272°
2026-05-06 16:37 49.08172 -1.04878 33980 ft 467 kts 272°
2026-05-06 16:38 49.08483 -1.14792 33986 ft 466 kts 277°
2026-05-06 16:38 49.09444 -1.24569 33981 ft 465 kts 283°
2026-05-06 16:39 49.10929 -1.34122 33976 ft 464 kts 284°
2026-05-06 16:39 49.12482 -1.43687 33980 ft 463 kts 284°
2026-05-06 16:40 49.14020 -1.53258 33980 ft 463 kts 284°
2026-05-06 16:40 49.15547 -1.62835 33979 ft 463 kts 284°
2026-05-06 16:41 49.16809 -1.70793 33984 ft 463 kts 284°
2026-05-06 16:41 49.18321 -1.80373 33980 ft 462 kts 284°
2026-05-06 16:42 49.19827 -1.89980 33989 ft 462 kts 284°
2026-05-06 16:42 49.21320 -1.99569 33991 ft 462 kts 284°
2026-05-06 16:43 49.22843 -2.09120 33978 ft 462 kts 285°
2026-05-06 16:43 49.24478 -2.18575 33983 ft 462 kts 285°
2026-05-06 16:44 49.26120 -2.28097 33981 ft 462 kts 285°
2026-05-06 16:44 49.27754 -2.37671 33988 ft 462 kts 285°
2026-05-06 16:45 49.29370 -2.47218 33990 ft 462 kts 284°
2026-05-06 16:45 49.30973 -2.56752 33991 ft 462 kts 284°
2026-05-06 16:46 49.32571 -2.66305 33991 ft 461 kts 284°
2026-05-06 16:46 49.34159 -2.75844 33991 ft 460 kts 284°
2026-05-06 16:47 49.35734 -2.85375 33981 ft 460 kts 284°
2026-05-06 16:47 49.37302 -2.94913 33982 ft 460 kts 284°
2026-05-06 16:48 49.38852 -3.04397 33982 ft 460 kts 284°
2026-05-06 16:48 49.40404 -3.13945 33975 ft 460 kts 284°
2026-05-06 16:49 49.41952 -3.23515 33983 ft 459 kts 284°
2026-05-06 16:49 49.43486 -3.33058 33980 ft 459 kts 284°
2026-05-06 16:50 49.45013 -3.42620 33976 ft 459 kts 284°
2026-05-06 16:50 49.46531 -3.52173 33979 ft 459 kts 284°
2026-05-06 16:51 49.48042 -3.61722 33983 ft 458 kts 283°
2026-05-06 16:51 49.49527 -3.71186 33983 ft 457 kts 283°
2026-05-06 16:52 49.51016 -3.80727 33979 ft 457 kts 283°
2026-05-06 16:52 49.52496 -3.90263 33978 ft 457 kts 283°
2026-05-06 16:53 49.53969 -3.99805 33982 ft 457 kts 283°
2026-05-06 16:53 49.55432 -4.09341 33983 ft 456 kts 283°
2026-05-06 16:54 49.56888 -4.18882 33989 ft 456 kts 283°
2026-05-06 16:54 49.58333 -4.28422 33990 ft 456 kts 283°
2026-05-06 16:55 49.59701 -4.37922 33988 ft 456 kts 281°
2026-05-06 16:55 49.60909 -4.47539 33988 ft 456 kts 281°
2026-05-06 16:56 49.62109 -4.57159 33989 ft 455 kts 281°
2026-05-06 16:56 49.63309 -4.66764 33988 ft 455 kts 281°
2026-05-06 16:57 49.64507 -4.76377 33990 ft 455 kts 281°
2026-05-06 16:57 49.65699 -4.85982 33993 ft 454 kts 280°
2026-05-06 16:58 49.66877 -4.95556 33994 ft 454 kts 280°
2026-05-06 16:58 49.68039 -5.05074 33991 ft 454 kts 280°
2026-05-06 16:59 49.69206 -5.14686 33989 ft 454 kts 280°
2026-05-06 16:59 49.70365 -5.24308 33985 ft 453 kts 280°
2026-05-06 17:00 49.71514 -5.33916 33984 ft 453 kts 280°
2026-05-06 17:00 49.72652 -5.43508 33986 ft 453 kts 280°
2026-05-06 17:01 49.73784 -5.53107 33990 ft 453 kts 280°
2026-05-06 17:01 49.74907 -5.62716 33994 ft 453 kts 280°
2026-05-06 17:02 49.76022 -5.72321 33993 ft 453 kts 280°
2026-05-06 17:02 49.77130 -5.81938 34001 ft 453 kts 279°
2026-05-06 17:03 49.78222 -5.91496 34006 ft 453 kts 279°
2026-05-06 17:03 49.79312 -6.01098 34014 ft 452 kts 279°
2026-05-06 17:04 49.80393 -6.10710 34020 ft 452 kts 279°
2026-05-06 17:04 49.81470 -6.20349 34024 ft 452 kts 279°
2026-05-06 17:05 49.82537 -6.29976 34020 ft 452 kts 279°
2026-05-06 17:05 49.83596 -6.39605 34020 ft 453 kts 279°
2026-05-06 17:06 49.84647 -6.49244 34020 ft 453 kts 279°
2026-05-06 17:06 49.85683 -6.58823 34009 ft 453 kts 279°
2026-05-06 17:07 49.86719 -6.68484 34012 ft 453 kts 279°
2026-05-06 17:07 49.87746 -6.78140 34006 ft 453 kts 279°
2026-05-06 17:08 49.88766 -6.87803 34004 ft 454 kts 279°
2026-05-06 17:08 49.89779 -6.97489 34006 ft 455 kts 279°
2026-05-06 17:09 49.90786 -7.07184 34006 ft 455 kts 278°
2026-05-06 17:09 49.91786 -7.16905 34006 ft 455 kts 278°
2026-05-06 17:10 49.92776 -7.26606 34007 ft 455 kts 278°
2026-05-06 17:10 49.93761 -7.36331 34006 ft 456 kts 278°
2026-05-06 17:11 49.94738 -7.46071 34006 ft 456 kts 278°
2026-05-06 17:11 49.95707 -7.55831 34009 ft 458 kts 278°
2026-05-06 17:12 49.96674 -7.65644 34006 ft 459 kts 278°
2026-05-06 17:12 49.97630 -7.75416 34006 ft 459 kts 278°
2026-05-06 17:13 49.98584 -7.85271 34009 ft 461 kts 278°
2026-05-06 17:13 49.99531 -7.95158 34005 ft 461 kts 278°
2026-05-06 17:14 50.00141 -8.05061 34006 ft 461 kts 272°
2026-05-06 17:14 50.00436 -8.15032 34007 ft 461 kts 272°
2026-05-06 17:15 50.00714 -8.25009 34005 ft 462 kts 272°
2026-05-06 17:15 50.00988 -8.35030 34009 ft 463 kts 272°
2026-05-06 17:16 50.01255 -8.45054 34012 ft 463 kts 272°
2026-05-06 17:16 50.01513 -8.55091 34007 ft 464 kts 272°
2026-05-06 17:17 50.01763 -8.65123 34009 ft 463 kts 272°
2026-05-06 17:17 50.02005 -8.75188 34014 ft 466 kts 272°
2026-05-06 17:18 50.02238 -8.85208 34012 ft 465 kts 272°
2026-05-06 17:18 50.02464 -8.95284 34013 ft 467 kts 272°
2026-05-06 17:19 50.02680 -9.05379 34018 ft 465 kts 272°
2026-05-06 17:19 50.02888 -9.15470 34021 ft 466 kts 272°
2026-05-06 17:20 50.03088 -9.25605 34017 ft 468 kts 272°
2026-05-06 17:20 50.03280 -9.35754 34015 ft 469 kts 271°
2026-05-06 17:21 50.03461 -9.45850 34021 ft 468 kts 271°
2026-05-06 17:21 50.03632 -9.56030 34018 ft 472 kts 272°
2026-05-06 17:22 50.03800 -9.66253 34020 ft 472 kts 272°
2026-05-06 17:22 50.03958 -9.76492 34020 ft 472 kts 271°
2026-05-06 17:23 50.04107 -9.86732 34020 ft 472 kts 272°
2026-05-06 17:23 50.04247 -9.96975 34023 ft 472 kts 271°
2026-05-06 17:24 50.04376 -10.07154 34023 ft 473 kts 271°
2026-05-06 17:24 50.04496 -10.17415 34022 ft 475 kts 271°
2026-05-06 17:25 50.04613 -10.27736 34026 ft 475 kts 271°
2026-05-06 17:25 50.04718 -10.38044 34025 ft 475 kts 271°
2026-05-06 17:26 50.04814 -10.48337 34029 ft 475 kts 271°
2026-05-06 17:26 50.04899 -10.58582 34032 ft 477 kts 271°
2026-05-06 17:27 50.04976 -10.68952 34025 ft 478 kts 271°
2026-05-06 17:27 50.05033 -10.77581 34027 ft 479 kts 271°
2026-05-06 17:28 50.05094 -10.87946 34030 ft 478 kts 271°
2026-05-06 17:28 50.05144 -10.98324 34028 ft 479 kts 271°
2026-05-06 17:29 50.05187 -11.08654 34037 ft 479 kts 271°
2026-05-06 17:29 50.05219 -11.19054 34033 ft 479 kts 271°
2026-05-06 17:30 50.05241 -11.29458 34027 ft 479 kts 271°
2026-05-06 17:30 50.05255 -11.39854 34032 ft 480 kts 271°
2026-05-06 17:31 50.05259 -11.50212 34032 ft 480 kts 271°
2026-05-06 17:31 50.05254 -11.60650 34034 ft 481 kts 271°
2026-05-06 17:32 50.05241 -11.71088 34033 ft 481 kts 270°
2026-05-06 17:32 50.05214 -11.81538 34032 ft 483 kts 271°
2026-05-06 17:33 50.05182 -11.92013 34037 ft 483 kts 271°
2026-05-06 17:33 50.05139 -12.02538 34033 ft 485 kts 271°
2026-05-06 17:34 50.05089 -12.12993 34038 ft 485 kts 271°
2026-05-06 17:34 50.05028 -12.23522 34036 ft 485 kts 271°
2026-05-06 17:35 50.04957 -12.34042 34034 ft 485 kts 271°
2026-05-06 17:35 50.04874 -12.44580 34031 ft 486 kts 271°
2026-05-06 17:36 50.04734 -12.60444 34034 ft 488 kts 271°
2026-05-06 17:36 50.04631 -12.71029 34037 ft 488 kts 271°
2026-05-06 17:37 50.04516 -12.81617 34037 ft 489 kts 271°
2026-05-06 17:37 50.04390 -12.92141 34034 ft 489 kts 271°
2026-05-06 17:38 50.04256 -13.02732 34037 ft 489 kts 271°
2026-05-06 17:38 50.04114 -13.13347 34042 ft 489 kts 271°
2026-05-06 17:39 50.03961 -13.23955 34043 ft 489 kts 271°
2026-05-06 17:39 50.03798 -13.34547 34028 ft 489 kts 271°
2026-05-06 17:40 50.03621 -13.45139 34036 ft 489 kts 271°
2026-05-06 17:40 50.03442 -13.55668 34046 ft 489 kts 271°
2026-05-06 17:41 50.03251 -13.66285 34048 ft 489 kts 271°
2026-05-06 17:41 50.03050 -13.76878 34048 ft 489 kts 271°
2026-05-06 17:42 50.02835 -13.87471 34042 ft 488 kts 271°
2026-05-06 17:42 50.02616 -13.98056 34048 ft 488 kts 271°
2026-05-06 17:43 50.02388 -14.08621 34040 ft 488 kts 271°
2026-05-06 17:43 50.02150 -14.19143 34043 ft 489 kts 271°
2026-05-06 17:44 50.01899 -14.29734 34042 ft 489 kts 271°
2026-05-06 17:44 50.01640 -14.40323 34046 ft 489 kts 271°
2026-05-06 17:45 50.01371 -14.50901 34046 ft 489 kts 271°
2026-05-06 17:45 50.01093 -14.61473 34044 ft 489 kts 270°
2026-05-06 17:46 50.00807 -14.71979 34042 ft 489 kts 270°
2026-05-06 17:46 50.00507 -14.82628 34042 ft 487 kts 270°
2026-05-06 17:47 50.00157 -14.93100 34041 ft 488 kts 268°
2026-05-06 17:47 49.99211 -15.03614 34045 ft 491 kts 261°
2026-05-06 17:48 49.97559 -15.13935 34048 ft 492 kts 257°
2026-05-06 17:48 49.95734 -15.24204 34038 ft 490 kts 257°
2026-05-06 17:49 49.93912 -15.34413 34046 ft 489 kts 257°
2026-05-06 17:49 49.92085 -15.44621 34045 ft 489 kts 257°
2026-05-06 17:50 49.90254 -15.54811 34046 ft 489 kts 257°
2026-05-06 17:50 49.88429 -15.64923 34046 ft 488 kts 256°
2026-05-06 17:51 49.86591 -15.75045 34048 ft 486 kts 256°
2026-05-06 17:51 49.84747 -15.85138 34051 ft 486 kts 256°
2026-05-06 17:52 49.82893 -15.95233 34049 ft 486 kts 256°
2026-05-06 17:52 49.81031 -16.05321 34038 ft 486 kts 256°
2026-05-06 17:53 49.79185 -16.15267 34048 ft 481 kts 256°
2026-05-06 17:53 49.77323 -16.25244 34050 ft 481 kts 256°
2026-05-06 17:54 49.75447 -16.35241 34053 ft 481 kts 256°
2026-05-06 17:54 49.73571 -16.45187 34050 ft 481 kts 256°
2026-05-06 17:55 49.71692 -16.55102 34047 ft 478 kts 255°
2026-05-06 17:55 49.69809 -16.64972 34050 ft 478 kts 255°
2026-05-06 17:56 49.67918 -16.74837 34047 ft 478 kts 255°
2026-05-06 17:56 49.66032 -16.84634 34050 ft 478 kts 255°
2026-05-06 17:57 49.64127 -16.94481 34048 ft 476 kts 255°
2026-05-06 17:57 49.62219 -17.04273 34050 ft 475 kts 255°
2026-05-06 17:58 49.60303 -17.14050 34053 ft 475 kts 255°
2026-05-06 17:58 49.58381 -17.23827 34053 ft 475 kts 255°
2026-05-06 17:59 49.56455 -17.33582 34051 ft 474 kts 254°
2026-05-06 17:59 49.54529 -17.43283 34055 ft 472 kts 254°
2026-05-06 18:00 49.52597 -17.52960 34055 ft 472 kts 254°
2026-05-06 18:00 49.50671 -17.62564 34054 ft 472 kts 254°
2026-05-06 18:01 49.48723 -17.72221 34051 ft 472 kts 254°
2026-05-06 18:01 49.46788 -17.81811 34055 ft 466 kts 253°
2026-05-06 18:02 49.44849 -17.91332 34055 ft 466 kts 253°
2026-05-06 18:02 49.42902 -18.00843 34055 ft 466 kts 253°
2026-05-06 18:03 49.40939 -18.10376 34055 ft 465 kts 253°
2026-05-06 18:03 49.38984 -18.19858 34055 ft 463 kts 253°
2026-05-06 18:04 49.37031 -18.29274 34050 ft 462 kts 252°
2026-05-06 18:04 49.35081 -18.38623 34053 ft 462 kts 252°
2026-05-06 18:05 49.33114 -18.48015 34053 ft 462 kts 252°
2026-05-06 18:05 49.31133 -18.57430 34057 ft 462 kts 252°
2026-05-06 18:06 49.29152 -18.66804 34058 ft 462 kts 252°
2026-05-06 18:06 49.27160 -18.76183 34060 ft 462 kts 252°
2026-05-06 18:07 49.25175 -18.85489 34057 ft 462 kts 252°
2026-05-06 18:07 49.23165 -18.94866 34055 ft 462 kts 252°
2026-05-06 18:08 49.21156 -19.04201 34059 ft 461 kts 252°
2026-05-06 18:08 49.19136 -19.13539 34055 ft 461 kts 252°
2026-05-06 18:09 49.17111 -19.22858 34058 ft 461 kts 252°
2026-05-06 18:09 49.15092 -19.32109 34056 ft 461 kts 252°
2026-05-06 18:10 49.13048 -19.41385 34059 ft 456 kts 253°
2026-05-06 18:10 49.11036 -19.50544 34057 ft 454 kts 253°
2026-05-06 18:11 49.09361 -19.58147 34062 ft 454 kts 253°
2026-05-06 18:11 49.06993 -19.68822 34063 ft 454 kts 253°
2026-05-06 18:12 49.04956 -19.77945 34050 ft 453 kts 253°
2026-05-06 18:12 49.02917 -19.87023 34058 ft 451 kts 253°
2026-05-06 18:13 49.00866 -19.96070 34052 ft 451 kts 252°
2026-05-06 18:13 48.98376 -20.04885 34057 ft 453 kts 246°
2026-05-06 18:14 48.95559 -20.13416 34057 ft 453 kts 246°
2026-05-06 18:14 48.92729 -20.21935 34054 ft 445 kts 246°
2026-05-06 18:15 48.90391 -20.28967 34055 ft 443 kts 246°
2026-05-06 18:15 48.87598 -20.37349 34055 ft 443 kts 246°
2026-05-06 18:16 48.84800 -20.45710 34055 ft 443 kts 246°
2026-05-06 18:16 48.82015 -20.54000 34064 ft 442 kts 246°
2026-05-06 18:17 48.79259 -20.62161 34056 ft 429 kts 246°
2026-05-06 18:17 48.76534 -20.70227 34053 ft 428 kts 246°
2026-05-06 18:18 48.73806 -20.78259 34046 ft 425 kts 247°
2026-05-06 18:18 48.71098 -20.86228 34050 ft 425 kts 247°
2026-05-06 18:19 48.68394 -20.94160 34054 ft 419 kts 247°
2026-05-06 18:19 48.65723 -21.01963 34046 ft 416 kts 247°
2026-05-06 18:20 48.63067 -21.09704 34050 ft 416 kts 247°
2026-05-06 18:20 48.60390 -21.17479 34050 ft 416 kts 247°
2026-05-06 18:21 48.57707 -21.25250 34050 ft 416 kts 246°
2026-05-06 18:21 48.55034 -21.32970 34045 ft 412 kts 246°
2026-05-06 18:22 48.52372 -21.40629 34043 ft 411 kts 246°
2026-05-06 18:22 48.49706 -21.48276 34042 ft 411 kts 246°
2026-05-06 18:23 48.47037 -21.55913 34041 ft 411 kts 246°
2026-05-06 18:23 48.44378 -21.63498 34049 ft 411 kts 246°
2026-05-06 18:24 48.41709 -21.71096 34042 ft 408 kts 246°
2026-05-06 18:24 48.39044 -21.78652 34042 ft 408 kts 246°
2026-05-06 18:25 48.36377 -21.86191 34035 ft 408 kts 246°
2026-05-06 18:25 48.33705 -21.93725 34039 ft 408 kts 245°
2026-05-06 18:26 48.31042 -22.01217 34037 ft 407 kts 245°
2026-05-06 18:26 48.28365 -22.08726 34036 ft 407 kts 245°
2026-05-06 18:27 48.25688 -22.16207 34036 ft 407 kts 245°
2026-05-06 18:27 48.23003 -22.23689 34016 ft 407 kts 245°
2026-05-06 18:28 48.20293 -22.31217 34034 ft 410 kts 245°
2026-05-06 18:28 48.17576 -22.38751 34036 ft 410 kts 245°
2026-05-06 18:29 48.14851 -22.46283 34034 ft 410 kts 245°
2026-05-06 18:29 48.12123 -22.53802 34034 ft 410 kts 245°
2026-05-06 18:30 48.09387 -22.61321 34030 ft 410 kts 245°
2026-05-06 18:30 48.06665 -22.68780 34031 ft 410 kts 245°
2026-05-06 18:31 48.03926 -22.76277 34028 ft 409 kts 244°
2026-05-06 18:31 48.01186 -22.83736 34029 ft 409 kts 244°
2026-05-06 18:32 47.98441 -22.91190 34033 ft 409 kts 244°
2026-05-06 18:32 47.95708 -22.98593 34030 ft 409 kts 244°
2026-05-06 18:33 47.92950 -23.06044 34035 ft 409 kts 244°
2026-05-06 18:33 47.90202 -23.13454 34028 ft 407 kts 244°
2026-05-06 18:34 47.87446 -23.20855 34029 ft 407 kts 244°
2026-05-06 18:34 47.84710 -23.28181 34018 ft 407 kts 244°
2026-05-06 18:35 47.81947 -23.35564 34019 ft 407 kts 244°
2026-05-06 18:35 47.79176 -23.42951 34024 ft 407 kts 243°
2026-05-06 18:36 47.76406 -23.50313 34021 ft 408 kts 243°
2026-05-06 18:36 47.73621 -23.57686 34020 ft 408 kts 243°
2026-05-06 18:37 47.70840 -23.65034 34018 ft 408 kts 243°
2026-05-06 18:37 47.68033 -23.72420 34014 ft 413 kts 244°
2026-05-06 18:38 47.65206 -23.79866 34015 ft 414 kts 243°
2026-05-06 18:38 47.62361 -23.87318 34015 ft 414 kts 243°
2026-05-06 18:39 47.59513 -23.94757 34017 ft 414 kts 243°
2026-05-06 18:40 47.55246 -24.05867 34015 ft 414 kts 243°
2026-05-06 18:40 47.52386 -24.13301 34016 ft 415 kts 242°
2026-05-06 18:41 47.49517 -24.20722 34015 ft 415 kts 242°
2026-05-06 18:41 47.46638 -24.28147 34011 ft 415 kts 242°
2026-05-06 18:42 47.43760 -24.35552 34009 ft 415 kts 242°
2026-05-06 18:42 47.40874 -24.42960 34021 ft 415 kts 242°
2026-05-06 18:43 47.38015 -24.50281 34006 ft 414 kts 242°
2026-05-06 18:43 47.35128 -24.57649 34013 ft 414 kts 242°
2026-05-06 18:44 47.32241 -24.64996 34009 ft 414 kts 242°
2026-05-06 18:44 47.29351 -24.72334 34007 ft 414 kts 242°
2026-05-06 18:45 47.26457 -24.79664 34008 ft 412 kts 242°
2026-05-06 18:45 47.23565 -24.86964 34005 ft 412 kts 242°
2026-05-06 18:46 47.20672 -24.94249 33998 ft 412 kts 241°
2026-05-06 18:46 47.17773 -25.01529 33998 ft 412 kts 241°
2026-05-06 18:47 47.14884 -25.08761 33992 ft 415 kts 242°
2026-05-06 18:47 47.11952 -25.16090 33995 ft 415 kts 242°
2026-05-06 18:48 47.09016 -25.23405 33997 ft 415 kts 241°
2026-05-06 18:48 47.06075 -25.30712 33988 ft 415 kts 241°
2026-05-06 18:49 47.03134 -25.38002 33988 ft 415 kts 241°
2026-05-06 18:49 47.00183 -25.45298 33992 ft 413 kts 241°
2026-05-06 18:50 46.97258 -25.52506 33988 ft 412 kts 241°
2026-05-06 18:50 46.94318 -25.59734 33988 ft 412 kts 241°
2026-05-06 18:51 46.91379 -25.66939 33985 ft 412 kts 241°
2026-05-06 18:51 46.88432 -25.74145 33982 ft 412 kts 241°
2026-05-06 18:52 46.85486 -25.81332 33980 ft 412 kts 241°
2026-05-06 18:52 46.82550 -25.88474 33979 ft 412 kts 241°
2026-05-06 18:53 46.79589 -25.95658 33973 ft 412 kts 241°
2026-05-06 18:53 46.76627 -26.02827 33973 ft 412 kts 241°
2026-05-06 18:54 46.73658 -26.10000 33966 ft 412 kts 240°
2026-05-06 18:54 46.70684 -26.17161 33971 ft 413 kts 240°
2026-05-06 18:55 46.67699 -26.24323 33966 ft 413 kts 240°
2026-05-06 18:55 46.64710 -26.31481 33966 ft 413 kts 240°
2026-05-06 18:56 46.61726 -26.38608 33949 ft 413 kts 240°
2026-05-06 18:56 46.58718 -26.45764 33944 ft 414 kts 240°
2026-05-06 18:57 46.55705 -26.52928 33951 ft 414 kts 240°
2026-05-06 18:57 46.52688 -26.60081 33947 ft 414 kts 240°
2026-05-06 18:58 46.49668 -26.67222 33949 ft 414 kts 240°
2026-05-06 18:58 46.46642 -26.74365 33941 ft 414 kts 240°
2026-05-06 18:59 46.43632 -26.81444 33939 ft 414 kts 240°
2026-05-06 18:59 46.40601 -26.88552 33934 ft 414 kts 240°
2026-05-06 19:00 46.37562 -26.95661 33928 ft 414 kts 240°
2026-05-06 19:00 46.35038 -27.01554 33932 ft 414 kts 240°
2026-05-06 19:01 46.31992 -27.08653 33935 ft 414 kts 239°
2026-05-06 19:01 46.28942 -27.15736 33929 ft 414 kts 239°
2026-05-06 19:02 46.25906 -27.22769 33936 ft 414 kts 239°
2026-05-06 19:02 46.22843 -27.29848 33936 ft 414 kts 239°
2026-05-06 19:03 46.19785 -27.36903 33945 ft 414 kts 239°
2026-05-06 19:03 46.16712 -27.43969 33944 ft 415 kts 239°
2026-05-06 19:04 46.13635 -27.51024 33952 ft 415 kts 239°
2026-05-06 19:04 46.10570 -27.58035 33963 ft 415 kts 239°
2026-05-06 19:05 46.07488 -27.65072 33967 ft 415 kts 238°
2026-05-06 19:05 46.04387 -27.72129 33958 ft 418 kts 239°
2026-05-06 19:06 46.01265 -27.79217 33968 ft 419 kts 239°
2026-05-06 19:06 45.98136 -27.86305 33976 ft 419 kts 238°
2026-05-06 19:07 45.95003 -27.93384 33981 ft 419 kts 238°
2026-05-06 19:07 45.91856 -28.00479 33992 ft 420 kts 238°
2026-05-06 19:08 45.88729 -28.07506 34000 ft 420 kts 238°
2026-05-06 19:08 45.85567 -28.14596 33996 ft 420 kts 238°
2026-05-06 19:09 45.82406 -28.21665 33998 ft 420 kts 238°
2026-05-06 19:09 45.79241 -28.28731 34000 ft 422 kts 238°
2026-05-06 19:10 45.76058 -28.35813 34004 ft 422 kts 238°
2026-05-06 19:10 45.72868 -28.42893 34012 ft 423 kts 238°
2026-05-06 19:11 45.69673 -28.49968 34012 ft 423 kts 238°
2026-05-06 19:11 45.66468 -28.57046 34013 ft 425 kts 238°
2026-05-06 19:12 45.63232 -28.64178 34017 ft 428 kts 238°
2026-05-06 19:12 45.59981 -28.71320 34015 ft 428 kts 238°
2026-05-06 19:13 45.56724 -28.78459 34020 ft 429 kts 238°